Location: Newark
(34.6283°N, 36.0776°E)
Time: 18:09:08
(UTC+00:00)

Courier 1B - All Passes

Search period start: 17 October 2019 00:00
Search period end: 27 October 2019 00:00
Orbit: 962 x 1209 km, 28.3° (Epoch: 17 October)

Date Brightness Start Highest point End Pass type
(mag) Time Alt. Az. Time Alt. Az. Time Alt. Az.
17 Oct - 15:01:58 10° SSW 15:08:08 25° SSE 15:14:12 10° ESE daylight
17 Oct - 16:54:29 10° WSW 17:01:53 46° SSE 17:08:59 10° E visible
17 Oct - 18:48:25 10° WSW 18:55:51 53° S 19:02:52 10° ESE visible
17 Oct - 20:42:56 10° W 20:49:38 37° SSW 20:55:56 10° SE night (unlit)
17 Oct - 22:39:03 10° WSW 22:42:55 15° SSW 22:46:40 10° S night (unlit)
18 Oct - 14:09:00 10° SSW 14:14:23 20° SSE 14:19:44 10° ESE daylight
18 Oct - 16:00:47 10° SW 16:08:01 41° SSE 16:15:06 10° E visible
18 Oct - 17:54:27 10° WSW 18:02:00 54° S 18:09:11 10° ESE visible
18 Oct - 19:48:49 10° W 19:55:54 43° SSW 20:02:35 10° SE visible
18 Oct - 21:44:11 10° WSW 21:49:20 21° SSW 21:54:18 10° SSE night (unlit)
19 Oct - 13:16:31 10° S 13:20:39 15° SSE 13:24:48 10° ESE daylight
19 Oct - 15:07:12 10° SW 15:14:11 36° SSE 15:21:06 10° E visible
19 Oct - 17:00:32 10° WSW 17:08:07 53° S 17:15:26 10° E visible
19 Oct - 18:54:45 10° W 19:02:06 48° S 19:09:05 10° ESE visible
19 Oct - 20:49:41 10° WSW 20:55:43 27° SSW 21:01:28 10° SSE night (unlit)
20 Oct - 12:25:37 10° SSE 12:26:58 10° SSE 12:28:19 10° SE daylight
20 Oct - 14:13:49 10° SW 14:20:23 30° SSE 14:26:58 10° E daylight
20 Oct - 16:06:41 10° WSW 16:14:13 50° S 16:21:36 10° E visible
20 Oct - 18:00:43 10° W 18:08:15 52° S 18:15:28 10° ESE visible
20 Oct - 19:55:23 10° W 20:02:02 33° SSW 20:08:22 10° SE visible
20 Oct - 21:52:30 10° SW 21:55:18 12° SSW 21:58:03 10° S night (unlit)
21 Oct - 13:20:41 10° SSW 13:26:37 24° SSE 13:32:38 10° ESE daylight
21 Oct - 15:12:56 10° WSW 15:20:20 46° SSE 15:27:41 10° E visible
21 Oct - 17:06:45 10° WSW 17:14:22 55° S 17:21:46 10° ESE visible
21 Oct - 19:01:12 10° W 19:08:17 40° SSW 19:15:03 10° SE visible
21 Oct - 20:57:02 10° WSW 21:01:43 18° SSW 21:06:14 10° S night (unlit)
22 Oct - 12:27:54 10° SSW 12:32:54 19° SSE 12:38:00 10° ESE daylight
22 Oct - 14:19:19 10° SW 14:26:28 40° SSE 14:33:41 10° E daylight
22 Oct - 16:12:49 10° WSW 16:20:28 55° S 16:27:58 10° ESE visible
22 Oct - 18:07:06 10° W 18:14:28 45° SSW 18:21:34 10° ESE visible
22 Oct - 20:02:18 10° WSW 20:08:04 23° SSW 20:13:37 10° SSE night (unlit)
23 Oct - 11:35:46 10° S 11:39:14 14° SSE 11:42:45 10° ESE daylight
23 Oct - 13:25:53 10° SW 13:32:39 34° SSE 13:39:33 10° E daylight
23 Oct - 15:18:59 10° WSW 15:26:32 53° S 15:34:05 10° E visible
23 Oct - 17:13:04 10° W 17:20:36 50° S 17:27:57 10° ESE visible
23 Oct - 19:07:52 10° W 19:14:22 29° SSW 19:20:37 10° SE visible
24 Oct - 12:32:39 10° SSW 12:38:53 28° SSE 12:45:18 10° E daylight
24 Oct - 14:25:14 10° WSW 14:32:38 49° S 14:40:09 10° E daylight
24 Oct - 16:19:06 10° W 16:26:42 54° S 16:34:13 10° ESE visible
24 Oct - 18:13:37 10° W 18:20:36 36° SSW 18:27:23 10° SE visible
24 Oct - 20:10:10 10° WSW 20:14:01 15° SSW 20:17:48 10° S night (unlit)
25 Oct - 11:39:41 10° SSW 11:45:10 22° SSE 11:50:50 10° ESE daylight
25 Oct - 13:31:37 10° SW 13:38:46 44° SSE 13:46:08 10° E daylight
25 Oct - 15:25:13 10° WSW 15:32:47 55° S 15:40:24 10° ESE visible
25 Oct - 17:19:30 10° W 17:26:47 42° SSW 17:33:55 10° SE visible
25 Oct - 19:15:04 10° WSW 19:20:21 20° SSW 19:25:31 10° SSE visible
26 Oct - 10:47:09 10° S 10:51:31 17° SSE 10:56:00 10° ESE daylight
26 Oct - 12:38:08 10° SW 12:44:56 38° SSE 12:52:02 10° E daylight
26 Oct - 14:31:24 10° WSW 14:38:52 54° S 14:46:30 10° ESE daylight
26 Oct - 16:25:30 10° W 16:32:55 47° SSW 16:40:19 10° ESE visible
26 Oct - 18:20:29 10° WSW 18:26:38 25° SSW 18:32:41 10° SSE visible
